Location: Krakow
(50.0830°N, 19.9170°E)
Time: 12:24:14
(UTC+02:00)

Tiros 1 - Pass Details

Date: 17 February 2023
Orbit: 627 x 662 km, 48.4° (Epoch: 26 March)

Event Time Altitude Azimuth Distance (km) Brightness Sun altitude
Rises 21:44:01 0° 270° (W) 2,912 11.0 -43.4°
Enters shadow 21:44:06 - 270° (W) 2,878 11.0 -43.4°
Reaches altitude 10° 21:46:20 10° 268° (W) 2,003 - -43.6°
Maximum altitude 21:50:55 72° 185° (S) 663 - -44.2°
Drops below altitude 10° 21:55:31 10° 101° (ESE) 2,004 - -44.7°
Sets 21:57:50 0° 100° (E) 2,914 - -44.9°
